Погода в Родниках

Россия / Ставропольский край     45°37′26″N   42°34′59″E
темп.,
°C
ветер,
м/с
пор.,
м/с
влажн.,
%
обл.,
%
осадки,
мм/ч
давл.,
гПа
погр.,
м
12 мая, ср
ср1200:00+7с2497100 0.0 1018158
03:00+6всв239370 0.0 101760
06:00+7св11845 0.0 101842
09:00+13вюв34611 0.0 1017646
12:00+17вюв44524 0.0 10161308
15:00+19в565231 0.0 10151688
18:00+18в356853 0.0 1014144
21:00+13вюв478010 0.0 1014118
13 мая, чт
чт1300:00+12вюв35816 0.0 101469
03:00+10юв33750 0.0 101331
06:00+12юв37780 0.0 1014133
09:00+19юв46610 0.0 1014527
12:00+23вюв45530 0.0 1014854
15:00+25вюв55505 0.0 10131069
18:00+22вюв366617 0.0 1013161
21:00+17юв45725 0.0 101462
14 мая, пт
пт1400:00+15вюв4573100 0.0 101366
03:00+15вюв47748 0.0 1013104
06:00+15юв38830 0.0 1013163
09:00+22юв57630 0.0 1013440
12:00+27вюв55494 0.0 1012840
15:00+28вюв56460 0.0 10111014
18:00+25юв37640 0.0 1011168
21:00+20вюв45750 0.0 101158
15 мая, сб
сб1500:00+17вюв512610 0.0 1011204
03:00+14юв49580 0.0 1011148
06:00+15юв346213 0.0 101270
09:00+23з23652 0.0 1012496
12:00+26сз33595 0.0 1012929
15:00+28ссз33550 0.0 10111184
18:00+26с23660 0.0 101192
21:00+20ссз1174100 0.0 101111
16 мая, вс
вс1600:00+19с0079100 0.0 101111
03:00+17вюв34735 0.0 101053
06:00+16вюв36605 0.0 1010104
09:00+21вюв57525 0.0 1009472
12:00+26вюв68431 0.0 1008925
15:00+28вюв6114012 0.0 10061545
18:00+24вюв71544100 0.0 1005383
21:00+21вюв8184384 0.0 1005533